Location: Albany
(35.0170°S, 117.8920°E)
Time: 16:47:23
(UTC+08:00)

Transit 2A - Pass Details

Date: 24 January 2021
Orbit: 601 x 958 km, 66.7° (Epoch: 02 March)

Event Time Altitude Azimuth Distance (km) Brightness Sun altitude
Rises 23:21:08 0° 191° (S) 3,526 10.5 -34.1°
Reaches altitude 10° 23:24:43 10° 170° (S) 2,636 9.4 -34.3°
Maximum altitude 23:28:26 16° 133° (SE) 2,253 8.6 -34.5°
Enters shadow 23:29:57 15° 116° (ESE) 2,336 8.5 -34.6°
Drops below altitude 10° 23:32:13 10° 96° (E) 2,693 - -34.7°
Sets 23:35:54 0° 75° (ENE) 3,641 - -34.9°
